Left ArrowRight Arrow

38.20091, -84.87328

Hourly Observations for June 22, 2024

Temp ( °F °C ) Dew Point ( °F °C ) Humidity (%) Winds ( mph kmh ) Pressure ( in mb ) Visibility ( mi km ) Precip ( " mm )
12:53 am 00:53 Clear 74 23.3 69 20.6 85 85 Calm 30.09 1019 10 16 0.00 0.00
1:53 am 01:53 Clear 74 23.3 69 20.6 85 85 Calm 30.09 1019 10 16 0.00 0.00
2:53 am 02:53 Clear 73 22.8 69 20.6 87 87 NNW 3 6 30.09 1019 9 14 0.00 0.00
3:53 am 03:53 Clear 73 22.8 70 21.1 90 90 Calm 30.09 1019 10 16 0.00 0.00
4:53 am 04:53 Clear 71 21.7 68 20 90 90 Calm 30.09 1019 9 14 0.00 0.00
5:53 am 05:53 Clear 71 21.7 68 20 90 90 Calm 30.09 1019 9 14 0.00 0.00
6:53 am 06:53 Sunny 70 21.1 68 20 93 93 Calm 30.09 1019 7 11 0.00 0.00
7:53 am 07:53 Sunny 75 23.9 71 21.7 88 88 Calm 30.09 1019 8 13 0.00 0.00
8:53 am 08:53 Sunny 81 27.2 71 21.7 72 72 SSE 3 6 30.08 1019 10 16 0.00 0.00
9:53 am 09:53 undefined N/A N/A N/A undefined N/A 30.14 1021 N/A 0.00 0.00
10:53 am 10:53 undefined N/A N/A N/A undefined N/A 30.13 1020 N/A 0.00 0.00
11:53 am 11:53 undefined N/A N/A N/A undefined N/A 30.12 1020 N/A 0.00 0.00
12:53 pm 12:53 undefined N/A N/A N/A undefined N/A 30.10 1019 N/A 0.00 0.00
1:53 pm 13:53 undefined N/A N/A N/A undefined N/A 30.08 1019 N/A 0.00 0.00
2:53 pm 14:53 undefined N/A N/A N/A undefined N/A 30.06 1018 N/A 0.00 0.00
3:53 pm 15:53 Sunny 93 33.9 68 20 44 44 undefined N/A 29.97 1015 10 16 0.00 0.00
4:53 pm 16:53 Mostly Sunny 93 33.9 67 19.4 43 43 SW 10 17 29.95 1014 10 16 0.00 0.00
5:53 pm 17:53 Mostly Sunny 93 33.9 68 20 44 44 SSW 9 15 29.93 1014 10 16 0.00 0.00
6:53 pm 18:53 Mostly Sunny 91 32.8 69 20.6 49 49 SSW 6 9 29.92 1013 10 16 0.00 0.00
7:53 pm 19:53 Cloudy 90 32.2 70 21.1 52 52 SW 8 13 29.91 1013 10 16 0.00 0.00
8:53 pm 20:53 Sunny 85 29.4 71 21.7 63 63 WSW 3 6 29.91 1013 10 16 0.00 0.00
9:53 pm 21:53 Partly Cloudy 82 27.8 72 22.2 72 72 SW 5 7 29.89 1012 10 16 0.00 0.00
10:53 pm 22:53 Clear 80 26.7 72 22.2 76 76 SW 5 7 29.88 1012 10 16 0.00 0.00
11:53 pm 23:53 Clear 78 25.6 71 21.7 79 79 SSW 5 7 29.90 1012 10 16 0.00 0.00

Powered by Vaisala Xweather